Weather in Anastasyevka

Russia / Tomsk District     56°46′18″N   83°34′23″E
temp.,
°C
wind,
m/s
gust,
m/s
humid.,
%
clouds,
%
prec.,
mm/h
press.,
hPa
HPBL,
m
18 april, sun
sun1801:00−4ssw31187100 0.0 1019354
04:00−3ssw51383100 0.0 1015476
07:00−1sw51480100 0.0 1013793
10:000wsw41096100 1.7 1012715
13:00+3sw3480100 2.1 1011898
16:00+2s3697100 0.8 1009400
19:00+1s31099100 3.8 1005643
22:00+2ssw51398100 2.9 1001949
19 april, mon
mon1901:00−3n71296100 5.4 1000504
04:00−7n81592100 2.6 10031087
07:00−10nnw81589100 4.9 1010922
10:00−9nw7107382 0.1 10161100
13:00−7nw6965100 0.1 10201622
16:00−6wnw6963100 0.1 10211869
19:00−6wnw51072100 0.1 10221516
22:00−7nw497874 0.1 1024998
20 april, tue
tue2001:00−9wnw4117914 0.1 1025504
04:00−10wnw410855 0.0 1026434
07:00−11wnw399061 0.0 1027407
10:00−7wnw3571100 0.0 1027877
13:00−3wnw3559100 0.0 10261430
16:00−2w4554100 0.1 10241647
19:00−2wsw4668100 0.3 10231086
22:00−5sw3778100 0.0 1023327
21 april, wed
wed2101:00−4ssw3783100 0.0 1021829
04:00−5s4993100 0.4 1020660
07:00−4sse3895100 1.2 1020557
10:00−3sse4589100 0.9 1021611
13:00−1se3480100 1.4 1022977
16:000e3371100 0.6 1024940
19:000ne4677100 1.2 1026775
22:00−3nne38897 0.1 1029217
22 april, thu
thu2201:00−4nne39905 0.1 1031250
04:00−5nne39915 0.0 1034255
07:00−6nne39885 0.0 1037273
10:00−1nne47655 0.0 1039872
13:00+1nne4658100 0.1 10401631
16:00+2nne4658100 0.1 10401489
19:00+1nne3665100 0.3 1042976
22:00−3n258868 0.0 104484